Location: Abraham Lincoln Continuation High School
(33.9711°N, 117.3662°W)
Time: 14:29:48
(UTC+00:00)

YAOGAN 1 - Pass Details

Date: 21 September 2020
Orbit: 618 x 620 km, 97.9° (Epoch: 28 October)

Event Time Altitude Azimuth Distance (km) Brightness Sun altitude
Rises 02:58:22 0° 180° (S) 2,880 5.9 -15.3°
Reaches altitude 10° 03:00:36 10° 187° (S) 1,979 5.1 -15.8°
Maximum altitude 03:04:45 46° 261° (W) 836 3.7 -16.6°
Drops below altitude 10° 03:08:55 10° 335° (NNW) 1,992 5.7 -17.5°
Sets 03:11:11 0° 341° (NNW) 2,902 6.5 -17.9°
